Location: Eastchurch
(51.4000°N, 0.8667°E)
Time: 23:54:42
(UTC+00:00)

NOSS 3-1 (A) - Visible Passes

Search period start: 18 April 2026 00:00
Search period end: 28 April 2026 00:00
Orbit: 613 x 1593 km, 63.4° (Epoch: 10 January)

Date Brightness Start Highest point End Pass type
(mag) Time Alt. Az. Time Alt. Az. Time Alt. Az.
18 Apr 4.8 00:08:33 10° WNW 00:14:52 34° WSW 00:14:52 34° WSW visible
18 Apr 5.0 19:41:03 10° NW 19:46:28 32° NNE 19:53:08 10° ENE visible
18 Apr 4.1 21:31:51 10° NW 21:38:28 64° NE 21:43:08 27° ESE visible
18 Apr 4.4 23:22:37 10° NW 23:29:24 48° WSW 23:30:29 45° SW visible
19 Apr 5.9 01:16:29 10° W 01:17:51 11° W 01:17:51 11° W visible
19 Apr 4.4 20:46:10 10° NW 20:52:30 50° NNE 20:58:47 16° ESE visible
19 Apr 4.1 22:36:48 10° NW 22:43:44 65° SW 22:46:09 47° S visible
20 Apr 5.5 00:28:51 10° WNW 00:33:30 19° WSW 00:33:30 19° WSW visible
20 Apr 4.7 20:00:29 10° NW 20:06:27 40° NNE 20:13:54 10° E visible
20 Apr 3.9 21:51:05 10° NW 21:57:59 87° SW 22:01:50 36° SE visible
20 Apr 5.1 23:42:22 10° WNW 23:48:29 28° WSW 23:49:12 28° WSW visible
21 Apr 4.0 21:05:25 10° NW 21:12:08 73° NE 21:17:34 24° ESE visible
21 Apr 4.7 22:56:18 10° NW 23:02:57 40° WSW 23:04:56 35° SSW visible
22 Apr 4.3 20:19:45 10° NW 20:26:13 56° NE 20:33:20 14° ESE visible
22 Apr 4.3 22:10:25 10° NW 22:17:18 56° SW 22:20:42 36° S visible
23 Apr 5.8 00:03:08 10° WNW 00:07:16 15° WSW 00:08:04 15° WSW visible
23 Apr 4.5 19:34:03 10° NW 19:40:12 45° NNE 19:47:55 10° E visible
23 Apr 4.0 21:24:39 10° NW 21:31:35 76° SW 21:36:30 28° SSE visible
23 Apr 5.4 23:16:15 10° WNW 23:21:55 23° WSW 23:23:53 22° SW visible
24 Apr 4.0 20:38:58 10° NW 20:45:47 83° NE 20:52:21 19° SE visible
24 Apr 5.0 22:30:01 10° WNW 22:36:27 34° WSW 22:39:43 26° SSW visible
25 Apr 4.2 19:53:17 10° NW 19:59:55 64° NE 20:08:14 10° ESE visible
25 Apr 4.6 21:44:02 10° NW 21:50:51 47° WSW 21:55:37 25° S visible
25 Apr 6.1 23:37:57 10° W 23:40:36 12° WSW 23:43:00 10° WSW visible
26 Apr 4.2 20:58:14 10° NW 21:05:11 65° SW 21:11:33 19° SSE visible
26 Apr 5.7 22:50:17 10° WNW 22:55:19 19° WSW 22:58:57 15° SW visible
27 Apr 4.1 20:12:30 10° NW 20:19:24 87° SW 20:27:33 12° SE visible
27 Apr 5.4 22:03:48 10° WNW 22:09:54 28° WSW 22:14:57 16° SSW visible
